Regional Weather Roundup
Issued by NWS

Home | Current Version | Previous Version | Text Only | Print | Product List | Glossary Off
Versions: 1 2 3 4 5 6 7 8 9 10 11 12 13 14 15 16 17 18 19 20 21 22 23 24 25 26 27 28 29 30 31 32 33 34 35 36 37 38 39 40 41 42 43 44 45 46 47 48 49 50

820
ASUS43 KMPX 171010
RWRMN
WEATHER ROUNDUP FOR MINNESOTA
NATIONAL WEATHER SERVICE TWIN CITIES/CHANHASSEN MN
500 AM CDT TUE OCT 17 2017


NOTE: "FAIR" INDICATES FEW OR NO CLOUDS BELOW 12,000 FEET WITH NO
SIGNIFICANT WEATHER AND/OR OBSTRUCTIONS TO VISIBILITY. N/A MEANS
CURRENT SKY AND/OR WEATHER CONDITIONS ARE NOT AVAILABLE.

MNZ060>063-068>070-171100-
   Twin Cities Metro

CITY           SKY/WX    TMP DP  RH WIND       PRES   REMARKS
TWIN CITIES    CLEAR     50  41  71 SW3       29.98S
ST PAUL        CLEAR     43  42  97 CALM      30.00R
CRYSTAL        CLEAR     44  38  79 CALM      29.96S
BLAINE         CLEAR     46  39  76 S5        29.97S
LAKEVILLE      CLEAR     46  39  76 CALM      29.99S
EDEN PRAIRIE   CLEAR     46  40  79 SW5       29.98R
SOUTH ST PAUL  CLEAR     42  41  96 CALM      29.98S
LAKE ELMO      FAIR      37  37 100 S3        29.99S
$$
MNZ001>005-007-008-013>017-022>024-027-028-171100-
   Northwest Minnesota

CITY           SKY/WX    TMP DP  RH WIND       PRES   REMARKS
BEMIDJI        CLOUDY    33  30  88 CALM      29.93R
HALLOCK        CLOUDY    34  28  80 S8        29.87F WCI  27
ROSEAU           N/A     37  32  81 S7        29.88S
WARROAD        CLEAR     37  34  87 S3        29.88F
THIEF RVR FALL CLOUDY    40  33  76 SE5       29.92R
CROOKSTON      CLOUDY    34  30  86 S7        29.92R WCI  28
FOSSTON        CLOUDY    36  32  87 S7        29.93S
DETROIT LAKES  CLOUDY    41  39  93 CALM      29.95S
MOORHEAD       CLOUDY    39  36  87 S5        29.95S
PARK RAPIDS    CLOUDY    36  32  85 CALM      29.95R
MAHNOMEN       FAIR      41  35  80 S7        29.93S
$$
MNZ006-009>011-018-025>026-171100-
   North Central Minnesota

CITY           SKY/WX    TMP DP  RH WIND       PRES   REMARKS
BAUDETTE       CLEAR     36  33  89 S5        29.89S
FLAG ISLAND    CLEAR     46  37  71 CALM      29.86S
INTL FALLS     CLEAR     31  28  89 CALM      29.89S
WASKISH        CLOUDY    34  34 100 CALM      29.90S
BIG FORK       CLOUDY    34  32  93 CALM      29.92S
LONGVILLE      CLOUDY    36  36 100 CALM      29.94R
GRAND RAPIDS   CLOUDY    41  36  82 CALM      29.95R
CRANE LAKE     PTCLDY    30  30 100 CALM      29.93R
ORR            CLOUDY    45  34  65 NW3       29.90R
COOK           CLOUDY    37  34  87 CALM      29.93R
WALKER         FAIR      43  37  80 SW3       29.93S
$$
MNZ012-019>021-037-171100-
   Northeast Minnesota

CITY           SKY/WX    TMP DP  RH WIND       PRES   REMARKS
DULUTH         CLOUDY    44  38  79 NW7       29.93R
ELY            CLOUDY    39  36  87 CALM      29.91R
HIBBING        CLOUDY    32  31  96 CALM      29.91R
EVELETH        CLOUDY    32  32 100 CALM      29.93R
DULUTH HARBOR  CLOUDY    48  43  81 S8        29.93R
TWO HARBORS    PTCLDY    50  39  66 W3        29.90R
GRAND MARAIS     N/A     51  39  63 VRB7      29.86R
G MARAIS ARPRT CLOUDY    43  34  70 W7        29.88R
$$
MNZ029>031-032-039>041-046>048-054>057-064-171100-
   West Central Minnesota

CITY           SKY/WX    TMP DP  RH WIND       PRES   REMARKS
FERGUS FALLS   CLEAR     39  39 100 CALM      29.97S
WHEATON        CLEAR     43  36  75 CALM      29.99R
MORRIS         CLEAR     37  37 100 CALM      29.97R
ALEXANDRIA     CLEAR     43  41  93 SW5       29.98R
ELBOW LAKE     FAIR      38  37  97 S3        29.97R
WADENA         CLOUDY    37  37 100 CALM      29.96R
GLENWOOD       CLEAR     43  39  87 W5        29.98R
APPLETON       CLEAR     39  37  93 CALM      29.97R
BENSON         CLEAR     36  34  93 CALM      29.99R FOG
ORTONVILLE     CLEAR     45  37  76 W3        29.97R
MADISON        CLEAR     45  39  81 CALM      29.98R
WILLMAR        FAIR      39  37  93 CALM      29.99R
$$
MNZ033>034-036-042>043-049>051-058-059-171100-
   Central Minnesota

CITY           SKY/WX    TMP DP  RH WIND       PRES   REMARKS
ST CLOUD       CLOUDY    36  36 100 CALM      29.97R
SAUK CENTRE    FAIR      38  37  96 CALM      29.97R
PAYNESVILLE    CLEAR     37  37  99 W5        29.97S
AITKIN         CLOUDY    34  32  93 CALM      29.94R
PINE RIVER     CLOUDY    34  32  93 CALM      29.98R
BRAINERD       CLEAR     38  37  97 CALM      29.96R
STAPLES        CLOUDY    36  36 100 CALM      29.96R
LONG PRAIRIE   FAIR      36  36 100 S3        29.97R
LITTLE FALLS   CLEAR     34  32  93 CALM      29.97R
LITCHFIELD     CLEAR     45  39  81 SW3       29.98R
BUFFALO        CLOUDY    40  36  85 CALM      29.98S
MAPLE LAKE     CLOUDY    40  39  97 CALM      29.98R
HUTCHINSON     CLOUDY    41  39  91 CALM      29.99R
$$
MNZ037-044-045-052-053-171100-
   East Central Minnesota

CITY           SKY/WX    TMP DP  RH WIND       PRES   REMARKS
PRINCETON      CLOUDY    37  36  93 CALM      29.97R
MORA           CLEAR     36  34  93 CALM      29.98R
CAMBRIDGE      CLOUDY    39  39 100 CALM      29.97R
RUSH CITY      CLEAR     37  35  93 CALM      29.97R
MOOSE LAKE     CLOUDY    34  32  93 CALM      29.93R
HINCKLEY       FAIR      34  34 100 CALM      29.96R
CLOQUET        PTCLDY    46  36  66 W6        29.93R
MCGREGOR       CLOUDY    39  36  87 S3        29.95R
$$
MNZ071>073-080-081-089-090-097-098-171100-
   Southwest Minnesota

CITY           SKY/WX    TMP DP  RH WIND       PRES   REMARKS
MONTEVIDEO     CLEAR     45  36  70 CALM      29.98R
GRANITE FALLS  CLEAR     40  37  89 SW5       30.00S
CANBY          CLEAR     49  39  70 SW6       30.00R
MARSHALL       CLEAR     48  39  71 SW7       30.00S
REDWOOD FALLS  CLEAR     44  37  76 SW6       29.99R
OLIVIA         CLEAR     39  36  87 CALM      29.98S
PIPESTONE      CLEAR     45  37  76 CALM      30.02S
WORTHINGTON    CLEAR     48  38  68 SW7       30.04S
JACKSON        CLEAR     48  37  66 SW7       30.04R
TRACY          CLEAR     49  40  71 SW7       30.00S
SLAYTON        CLEAR     45  38  76 S3        30.02S
$$
MNZ065>067-074>077-082>085-091>093-171100-
   South Central Minnesota

CITY           SKY/WX    TMP DP  RH WIND       PRES   REMARKS
MANKATO        CLEAR     46  39  76 S6        30.01S
NEW ULM        CLEAR     45  37  76 SW6       30.00R
ST JAMES       PTCLDY    45  39  81 S3        30.02S
FAIRMONT       CLEAR     50  40  68 SW7       30.03R
GLENCOE        CLEAR     45  40  83 SW3       29.98R
FARIBAULT      CLEAR     46  41  81 S7        30.01S
OWATONNA       CLEAR     48  39  71 CALM      30.02S
WASECA         CLEAR     45  37  76 S5        30.03S
ALBERT LEA     CLEAR     52  43  71 SW8       30.03S
$$
MNZ078>079-086>088-094>096-171100-
   Southeast Minnesota

CITY           SKY/WX    TMP DP  RH WIND       PRES   REMARKS
ROCHESTER      CLEAR     48  40  73 SW13      30.03S
RED WING       CLEAR     43  37  81 CALM      29.99R
STANTON        CLEAR     48  40  75 SW6       29.99R
DODGE CENTER   CLEAR     48  39  71 SW8       30.02S
WINONA         CLEAR     48  41  76 CALM      30.02S
AUSTIN         CLEAR     45  39  81 S3        30.04S
PRESTON        CLEAR     49  39  67 SW13      30.04S
$$
ABBREVIATIONS USED IN REMARKS
   TC - TEMPERATURES IN CELSIUS
  WCI - WIND CHILL INDEX
   HX - HEAT INDEX
  VSB - VISIBILITY
$$




USA.gov is the U.S. government's official web portal to all federal, state and local government web resources and services.